sat.trackr.live / text

‹ back to catalog

ONEWEB-0223

NORAD 48768 · 2021-045B

PAYLOAD ACTIVE UNKNOWN

§ Identity

Operator
Country
UK
Launch date
2021-05-28
Launch site
VOSTO
Launch vehicle
Mass (kg)
RCS (m²)

Purposes: comms

External: N2YO · Heavens-Above · Gunter

§ Orbital elements

Epoch: 2026-09-19T17:34:50.061504Z

Period
109.46 min
Inclination
87.8991°
Eccentricity
0.0001909
Mean motion
13.15548063 rev/d
Perigee alt
1,200.3 km
Apogee alt
1,203.2 km
Semi-major
7,579.9 km
B*
-1.5467e-4
RAAN
240.3434°
Arg perigee
71.3581°
Mean anomaly
288.7756°
Rev number
25,683

§ Raw data

ONEWEB-02231 48768U 21045B   26262.73252386 -.00000045  00000+0 -15467-3 0  99952 48768  87.8991 240.3434 0001909  71.3581 288.7756 13.15548063256834

JSON: /api/v1/satellites/48768 · /tle

For live sub-satellite position, see the globe view (requires WebGL).

§ Visibility from observer

Set your observer location to see the next 7 days of passes ≥ 10°. The values pass through the URL so the page stays shareable.

No JS? Fill the form by hand. The geolocation button needs JavaScript.